Showing default

GAOFEN DUOMO (GFDM), 45856

Orbit data source: Space-Track

GAOFEN DUOMO (GFDM), 45856 is a payload satellite owned by PLA SSF (CN) in SSO that was launched on Fri, 03 Jul 2020 UTC via a CHANG ZHENG 4B launch vehicle from the Taiyaun Space Center, China (TSC). Payload-class satellites include a variety of spacecraft equipped with specific instruments for various scientific and technological missions. These include communications satellites like Starlink; space stations such as the ISS; scientific satellites like the Hubble; Earth observation satellites from companies like Planet Labs, Umbra, and HawkEye 360; GPS; miniature CubeSats for education and research; and military/defense satellites.

Loading next visibility...
Identifier
45856, 2020-042A
Orbit
SSO
Country
Flag of CNCN / PRC
Related business
Manufacturer
CAST
Mission
Operational Defense Imaging
Bus & Motor
YW-5?, Unknown motor
Mass
~2,400 kg wet, ~2,000 kg dry
Launch date (UTC)
2020-07-03 (6 years ago)
Launch vehicle
CHANG ZHENG 4B
Launch site
Taiyaun Space Center, China (TSC)
Object type
Payload
Rocket body
Debris
Shape & HBR
Box + 2 Pan, Unknown HBR
Radar Cross Section
9.231 m², Large (>1 m²)

Expand to show TLE details & history
Last TLE update: 22 hours ago

TLE from 22 hours ago
0 GAOFEN DUOMO (GFDM)
1 45856U 20042A   26172.54352280  .00001189  00000-0  17592-3 0  9999
2 45856  97.7739 232.2718 0012356  62.5560 297.6905 14.76887401321659
Epoch: 2026-06-21T13:02Z
TLE epoch observation values (Epoch: 2026-06-21T13:02:40.369Z)
Latitude
-0.00011°
Longitude
126.86133°
Altitude
638.166 km
Speed
7.541 km/s
True Right ascension
15h 29m 05s
True Declination
0° 00' 00"
Sunlit
Object was in full shadow at epoch
Visualization orbit readout
Latitude
Unknown
Longitude
Unknown
Altitude
Unknown
Speed
Unknown
Apparent Right ascension
Unknown
Apparent Declination
Unknown
Sunlit
N/A
Visualization observer readout
Local Sidereal Time
21:39:26
Azimuth
Unknown
Elevation
Unknown
Doppler factor
Unknown
Orbital elements
Apogee altitude
644.873 km
Perigee altitude
627.539 km
Semi-major axis
7,014.343 km
Eccentricity
0.00124
Inclination
97.7739°
RAAN
232.2718°
Arg. of periapsis
62.556°
True anomaly
297.56504°
Mean anomaly
297.6905°
Eccentric anomaly
297.62778°
Mean motion
3.69456 °/min
Orbital period
97.44 mins
BSTAR
0.00017592
Loading maneuver chart data...
Computing Atmospheric mass density...
Loading historical data...
Loading historical data...
Loading historical data...
Loading historical data...
Loading historical data...
Loading historical data...
Loading historical data...
Other satellites on launch #42 in the year 2020 (2020-07-03 UTC)

Documentation

Showing up to 5 results
|